Location: Étouvelles
(49.5207°N, 3.5808°E)
Time: 23:15:58
(UTC+00:00)

Cosmos 2360 Rocket - Pass Details

Date: 03 February 2023
Orbit: 832 x 846 km, 71.0° (Epoch: 21 March)

Event Time Altitude Azimuth Distance (km) Brightness Sun altitude
Rises 19:47:46 0° 234° (SW) 3,381 5.9 -29.9°
Reaches altitude 10° 19:50:22 10° 243° (WSW) 2,453 5.2 -30.3°
Maximum altitude 19:55:34 37° 310° (NW) 1,287 3.5 -31.1°
Enters shadow 19:58:00 26° 357° (N) 1,622 3.7 -31.5°
